CW5437 Weather Reports


Display with metric or nautical units.
time (UTC)temp
F
wind
direction
speed
MPH
gust
MPH
rain 1hr
in
rain 24hr
in
rain mn
in
humidity
%
barometer
mb
20260504230008 71 250 13.0 19.0 0.00 0.00 0.00 34 1006.3
20260504225002 71 205 9.0 14.0 0.00 0.00 0.00 35 1006.3
20260504224003 71 205 10.0 17.0 0.00 0.00 0.00 35 1006.2
20260504223003 71 183 9.0 16.0 0.00 0.00 0.00 35 1006.1
20260504222004 71 205 9.0 11.0 0.00 0.00 0.00 35 1006.5
20260504221005 72 205 8.0 12.0 0.00 0.00 0.00 33 1006.8
20260504220006 72 250 11.0 15.0 0.00 0.00 0.00 33 1006.3
20260504214006 72 205 11.0 16.0 0.00 0.00 0.00 30 1006.1
20260504212005 72 228 12.0 17.0 0.00 0.00 0.00 29 1006.0
20260504211006 72 205 13.0 19.0 0.00 0.00 0.00 27 1007.0
20260504210007 73 228 13.0 17.0 0.00 0.00 0.00 26 1006.0
20260504204007 73 250 13.0 19.0 0.00 0.00 0.00 25 1006.3
20260504203002 73 228 12.0 17.0 0.00 0.00 0.00 27 1006.4
20260504202002 73 250 17.0 22.0 0.00 0.00 0.00 26 1006.4
20260504200002 72 250 8.0 12.0 0.00 0.00 0.00 31 1006.4
20260504195003 72 228 19.0 29.0 0.00 0.00 0.00 31 1006.7
20260504194004 72 250 15.0 20.0 0.00 0.00 0.00 29 1008.0
20260504193004 72 228 14.0 18.0 0.00 0.00 0.00 29 1007.0
20260504192005 72 228 9.0 13.0 0.00 0.00 0.00 32 1007.0
20260504191006 71 250 10.0 15.0 0.00 0.00 0.00 32 1007.1
20260504190006 72 250 12.0 16.0 0.00 0.00 0.00 29 1007.3
20260504185007 72 228 10.0 17.0 0.00 0.00 0.00 32 1007.4
20260504184001 71 228 15.0 22.0 0.00 0.00 0.00 31 1007.6
20260504182007 71 295 5.0 10.0 0.00 0.00 0.00 35 1007.8
20260504181002 71 228 10.0 16.0 0.00 0.00 0.00 36 1007.8
20260504180003 70 205 16.0 22.0 0.00 0.00 0.00 33 1008.1
20260504175002 71 250 9.0 13.0 0.00 0.00 0.00 35 1008.1
20260504174003 70 228 7.0 19.0 0.00 0.00 0.00 36 1008.1
20260504173004 69 228 15.0 21.0 0.00 0.00 0.00 37 1008.2
20260504172005 69 228 13.0 20.0 0.00 0.00 0.00 37 1008.3
20260504171005 69 273 9.0 15.0 0.00 0.00 0.00 40 1008.5
20260504151000 64 250 11.0 14.0 0.00 0.00 0.00 45 1009.4
20260504141002 60 250 10.0 15.0 0.00 0.00 0.00 49 1009.7
20260504082002 49 228 7.0 12.0 0.00 0.00 0.00 55 1011.0
20260504045002 49 250 5.0 11.0 0.00 0.00 0.00 52 1012.3
20260504044003 50 250 6.0 9.0 0.00 0.00 0.00 52 1012.4
20260504041007 50 205 8.0 11.0 0.00 0.00 0.00 51 1012.5
20260504040008 50 250 5.0 8.0 0.00 0.00 0.00 50 1012.6
20260504035007 51 250 7.0 11.0 0.00 0.00 0.00 49 1012.6
20260504034001 51 205 7.0 13.0 0.00 0.00 0.00 50 1012.6
20260504033002 51 228 7.0 11.0 0.00 0.00 0.00 49 1012.7
20260504031003 51 228 7.0 9.0 0.00 0.00 0.00 48 1013.2
20260504030004 51 250 8.0 12.0 0.00 0.00 0.00 49 1012.8
20260504025005 51 228 7.0 11.0 0.00 0.00 0.00 49 1012.8
20260504024005 51 205 5.0 7.0 0.00 0.00 0.00 49 1012.8
20260504023006 51 228 7.0 10.0 0.00 0.00 0.00 49 1012.7
20260504022007 51 205 9.0 11.0 0.00 0.00 0.00 49 1013.0
20260504020006 51 228 6.0 10.0 0.00 0.00 0.00 48 1012.8
20260504015001 52 228 6.0 7.0 0.00 0.00 0.00 47 1012.7
20260504014002 52 228 6.0 8.0 0.00 0.00 0.00 47 1012.5
20260504013003 52 183 6.0 9.0 0.00 0.00 0.00 47 1012.5
20260504012004 52 205 6.0 7.0 0.00 0.00 0.00 47 1012.6
20260504011004 52 228 5.0 6.0 0.00 0.00 0.00 46 1012.5
20260504005004 53 228 6.0 8.0 0.00 0.00 0.00 44 1012.5
20260504004005 54 250 8.0 11.0 0.00 0.00 0.00 42 1012.5
20260504003004 55 228 8.0 9.0 0.00 0.00 0.00 42 1012.6
20260504002005 55 250 6.0 7.0 0.00 0.00 0.00 42 1012.4
20260504001006 55 228 9.0 12.0 0.00 0.00 0.00 41 1012.4
20260504000007 56 250 8.0 11.0 0.00 0.00 0.00 40 1012.4
20260503235002 56 273 7.0 11.0 0.00 0.00 0.00 40 1012.4
20260503233007 56 250 8.0 11.0 0.00 0.00 0.00 39 1012.5
20260503232002 56 273 8.0 12.0 0.00 0.00 0.00 39 1012.4